Location: Colossi of Memnon
(25.7167°N, 32.6167°E)
Time: 21:04:07
(UTC+00:00)

CSL-04 DEB - Pass Details

Date: 05 March 2021
Orbit: 546 x 626 km, 98.8° (Epoch: 21 April)

Event Time Altitude Azimuth Distance (km) Brightness Sun altitude
Rises 03:30:32 0° 176° (S) 2,784 8.0 -9.5°
Reaches altitude 10° 03:32:44 10° 181° (S) 1,875 7.1 -9.0°
Maximum altitude 03:36:41 54° 258° (WSW) 692 4.5 -8.1°
Drops below altitude 10° 03:40:35 10° 336° (NNW) 1,842 6.7 -7.2°
Sets 03:42:44 0° 341° (NNW) 2,731 7.6 -6.7°
